QPF
0.00 0.00 0.01 0.00 0.00 0.01 0.01 0.01 0.01 0.01 0.01 0.01 0.01 0.01 0.00 0.00 0.00 0.00 0.00 0.00 0.00 0.00 0.00 0.00 0.01 0.01 0.02 0.03 0.03 0.03 0.02 0.01 0.00 0.01 0.01 0.01 0.01 0.02 0.03 0.03 0.03 0.03 0.03
0.00 0.00 0.00 0.00 0.00 0.01 0.01 0.01 0.01 0.01 0.01 0.01 0.01 0.01 0.00 0.00 0.00 0.00 0.00 0.00 0.00 0.00 0.00 0.00 0.00 0.01 0.01 0.01 0.01 0.01 0.01 0.01 0.01 0.01 0.02 0.02 0.01 0.02 0.02 0.02 0.03 0.03 0.03
0.00 0.00 0.00 0.00 0.00 0.01 0.01 0.01 0.01 0.01 0.01 0.01 0.01 0.01 0.00 0.00 0.00 0.00 0.00 0.00 0.00 0.00 0.00 0.00 0.00 0.00 0.00 0.00 0.00 0.00 0.00 0.00 0.01 0.02 0.04 0.05 0.02 0.02 0.02 0.01 0.01 0.01 0.02
0.00 0.00 0.00 0.00 0.00 0.00 0.01 0.01 0.01 0.01 0.01 0.01 0.01 0.01 0.00 0.00 0.00 0.00 0.00 0.00 0.00 0.00 0.00 0.00 0.00 0.00 0.00 0.00 0.00 0.00 0.00 0.01 0.02 0.02 0.03 0.03 0.03 0.01 0.02 0.01 0.01 0.01 0.02
0.00 0.00 0.00 0.01 0.00 0.00 0.01 0.01 0.01 0.01 0.01 0.01 0.01 0.01 0.00 0.00 0.00 0.00 0.00 0.00 0.00 0.00 0.00 0.00 0.00 0.00 0.00 0.00 0.00 0.00 0.01 0.01 0.01 0.01 0.01 0.04 0.06 0.03 0.02 0.02 0.02 0.02 0.01
0.00 0.00 0.00 0.01 0.01 0.00 0.00 0.00 0.01 0.01 0.00 0.00 0.00 0.00 0.00 0.00 0.00 0.00 0.00 0.01 0.01 0.01 0.01 0.01 0.00 0.00 0.00 0.00 0.00 0.00 0.00 0.01 0.01 0.01 0.01 0.02 0.05 0.04 0.03 0.04 0.03 0.02 0.01
0.00 0.00 0.00 0.01 0.01 0.01 0.00 0.00 0.00 0.00 0.00 0.00 0.00 0.00 0.00 0.01 0.01 0.00 0.01 0.01 0.01 0.01 0.01 0.01 0.01 0.01 0.01 0.00 0.01 0.01 0.01 0.01 0.02 0.01 0.01 0.02 0.04 0.02 0.04 0.05 0.05 0.03 0.01
0.00 0.00 0.01 0.01 0.01 0.01 0.01 0.01 0.01 0.01 0.01 0.01 0.01 0.01 0.01 0.02 0.02 0.01 0.01 0.01 0.01 0.01 0.01 0.01 0.01 0.01 0.01 0.01 0.00 0.01 0.01 0.02 0.02 0.01 0.01 0.02 0.02 0.01 0.03 0.05 0.06 0.03 0.02
0.00 0.00 0.01 0.02 0.02 0.02 0.02 0.02 0.02 0.02 0.02 0.02 0.02 0.02 0.03 0.03 0.03 0.02 0.02 0.02 0.02 0.03 0.02 0.02 0.02 0.02 0.02 0.02 0.01 0.00 0.01 0.01 0.04 0.04 0.01 0.03 0.01 0.01 0.02 0.03 0.05 0.04 0.03
0.00 0.01 0.02 0.03 0.03 0.03 0.03 0.03 0.03 0.03 0.03 0.04 0.04 0.03 0.03 0.03 0.03 0.03 0.03 0.03 0.04 0.05 0.05 0.05 0.04 0.03 0.04 0.04 0.02 0.01 0.01 0.02 0.03 0.03 0.03 0.03 0.01 0.01 0.03 0.04 0.04 0.04 0.04
0.01 0.01 0.01 0.01 0.02 0.02 0.03 0.03 0.03 0.04 0.05 0.05 0.06 0.05 0.06 0.06 0.06 0.05 0.04 0.05 0.05 0.07 0.09 0.10 0.08 0.07 0.08 0.07 0.05 0.03 0.02 0.02 0.02 0.03 0.03 0.02 0.01 0.04 0.06 0.05 0.05 0.04 0.04
0.01 0.01 0.01 0.01 0.02 0.03 0.03 0.05 0.07 0.08 0.10 0.12 0.12 0.11 0.11 0.11 0.10 0.08 0.08 0.07 0.07 0.09 0.11 0.12 0.11 0.09 0.07 0.08 0.12 0.09 0.03 0.01 0.02 0.02 0.02 0.01 0.01 0.05 0.09 0.11 0.08 0.05 0.04
0.01 0.01 0.02 0.03 0.04 0.04 0.04 0.05 0.08 0.09 0.12 0.14 0.13 0.12 0.14 0.13 0.12 0.11 0.12 0.12 0.13 0.12 0.15 0.16 0.15 0.12 0.11 0.11 0.15 0.13 0.08 0.05 0.03 0.02 0.02 0.01 0.01 0.04 0.10 0.15 0.15 0.11 0.06
0.02 0.03 0.05 0.07 0.06 0.07 0.09 0.08 0.06 0.08 0.11 0.14 0.16 0.15 0.15 0.14 0.16 0.15 0.16 0.15 0.14 0.16 0.18 0.19 0.19 0.18 0.17 0.16 0.16 0.16 0.14 0.12 0.07 0.05 0.05 0.03 0.02 0.02 0.05 0.14 0.18 0.16 0.11
0.03 0.04 0.05 0.05 0.05 0.08 0.07 0.06 0.07 0.10 0.12 0.15 0.21 0.21 0.17 0.17 0.20 0.19 0.20 0.17 0.16 0.15 0.16 0.18 0.19 0.18 0.19 0.19 0.18 0.16 0.16 0.16 0.12 0.11 0.09 0.07 0.04 0.03 0.02 0.05 0.13 0.16 0.16
0.03 0.04 0.06 0.04 0.04 0.05 0.05 0.08 0.11 0.12 0.14 0.17 0.19 0.22 0.21 0.22 0.23 0.21 0.20 0.20 0.16 0.13 0.13 0.16 0.18 0.18 0.19 0.19 0.15 0.14 0.13 0.16 0.16 0.13 0.10 0.10 0.08 0.05 0.04 0.03 0.06 0.12 0.16
0.09 0.09 0.09 0.07 0.07 0.06 0.09 0.10 0.10 0.10 0.13 0.18 0.21 0.22 0.21 0.19 0.19 0.18 0.17 0.17 0.16 0.14 0.12 0.10 0.11 0.14 0.16 0.16 0.15 0.15 0.14 0.13 0.12 0.11 0.10 0.10 0.09 0.06 0.05 0.05 0.05 0.08 0.14
0.12 0.14 0.10 0.07 0.08 0.09 0.10 0.08 0.08 0.10 0.14 0.12 0.12 0.13 0.14 0.16 0.13 0.11 0.11 0.13 0.13 0.13 0.11 0.09 0.09 0.11 0.12 0.12 0.12 0.12 0.11 0.11 0.09 0.09 0.09 0.07 0.08 0.06 0.05 0.05 0.06 0.06 0.09
0.08 0.08 0.07 0.07 0.08 0.08 0.07 0.07 0.09 0.11 0.12 0.09 0.09 0.11 0.11 0.11 0.11 0.11 0.10 0.12 0.13 0.11 0.09 0.07 0.08 0.08 0.08 0.08 0.08 0.08 0.06 0.06 0.06 0.06 0.06 0.06 0.07 0.06 0.06 0.05 0.05 0.06 0.08
0.08 0.08 0.09 0.11 0.10 0.07 0.06 0.06 0.05 0.05 0.05 0.06 0.07 0.07 0.08 0.10 0.10 0.12 0.11 0.11 0.11 0.09 0.07 0.06 0.06 0.07 0.06 0.07 0.06 0.05 0.05 0.05 0.03 0.04 0.04 0.05 0.05 0.05 0.05 0.08 0.10 0.07 0.07
0.09 0.12 0.09 0.08 0.07 0.06 0.06 0.06 0.04 0.04 0.04 0.03 0.04 0.04 0.05 0.05 0.06 0.06 0.06 0.06 0.05 0.05 0.05 0.05 0.04 0.04 0.04 0.04 0.04 0.03 0.03 0.02 0.02 0.02 0.03 0.04 0.04 0.06 0.06 0.08 0.11 0.11 0.09
0.06 0.08 0.07 0.10 0.11 0.10 0.07 0.04 0.02 0.02 0.02 0.02 0.02 0.02 0.02 0.01 0.02 0.02 0.02 0.02 0.02 0.03 0.03 0.04 0.03 0.03 0.02 0.03 0.03 0.03 0.02 0.02 0.02 0.01 0.03 0.04 0.06 0.08 0.07 0.07 0.09 0.11 0.10
0.04 0.04 0.03 0.05 0.06 0.05 0.03 0.02 0.01 0.02 0.01 0.01 0.01 0.01 0.01 0.01 0.01 0.00 0.00 0.00 0.01 0.01 0.02 0.02 0.02 0.02 0.03 0.03 0.02 0.03 0.03 0.03 0.02 0.02 0.02 0.03 0.05 0.08 0.08 0.09 0.09 0.11 0.10
0.02 0.02 0.03 0.03 0.02 0.02 0.02 0.03 0.03 0.02 0.01 0.02 0.01 0.01 0.01 0.01 0.00 0.00 0.00 0.00 0.00 0.01 0.01 0.01 0.02 0.02 0.03 0.03 0.03 0.03 0.02 0.03 0.03 0.02 0.02 0.03 0.03 0.05 0.07 0.09 0.09 0.11 0.14
0.01 0.01 0.02 0.02 0.02 0.01 0.01 0.02 0.03 0.02 0.02 0.01 0.01 0.02 0.01 0.01 0.00 0.00 0.00 0.00 0.01 0.01 0.01 0.01 0.01 0.02 0.03 0.03 0.03 0.02 0.02 0.03 0.03 0.04 0.02 0.02 0.02 0.02 0.04 0.07 0.09 0.11 0.13
0.00 0.01 0.01 0.01 0.02 0.01 0.01 0.02 0.03 0.02 0.02 0.02 0.02 0.01 0.01 0.00 0.00 0.00 0.00 0.01 0.01 0.01 0.01 0.01 0.01 0.02 0.02 0.02 0.03 0.02 0.02 0.02 0.02 0.03 0.02 0.02 0.02 0.02 0.03 0.04 0.06 0.09 0.11
MSLP
1011.67 1011.86 1012.16 1012.55 1012.96 1013.35 1013.66 1013.86 1013.97 1014.02 1014.06 1014.17 1014.38 1014.72 1015.17 1015.68 1016.19 1016.64 1016.96 1017.15 1017.21 1017.18 1017.11 1017.06 1017.04 1017.08 1017.15 1017.22 1017.28 1017.29 1017.25 1017.18 1017.10 1017.05 1017.07 1017.15 1017.29 1017.47 1017.67 1017.85 1018.01 1018.14 1018.25
1011.51 1011.77 1012.14 1012.60 1013.08 1013.53 1013.88 1014.11 1014.22 1014.25 1014.28 1014.37 1014.58 1014.92 1015.38 1015.89 1016.40 1016.83 1017.13 1017.28 1017.31 1017.27 1017.21 1017.18 1017.20 1017.29 1017.40 1017.51 1017.57 1017.56 1017.49 1017.37 1017.24 1017.17 1017.17 1017.26 1017.43 1017.66 1017.91 1018.14 1018.33 1018.47 1018.58
1011.30 1011.61 1012.04 1012.58 1013.15 1013.68 1014.11 1014.39 1014.54 1014.60 1014.63 1014.72 1014.92 1015.24 1015.67 1016.15 1016.61 1016.99 1017.23 1017.35 1017.35 1017.30 1017.27 1017.28 1017.36 1017.51 1017.68 1017.82 1017.88 1017.85 1017.72 1017.55 1017.37 1017.26 1017.24 1017.33 1017.53 1017.80 1018.09 1018.37 1018.59 1018.75 1018.87
1011.10 1011.44 1011.94 1012.55 1013.21 1013.83 1014.34 1014.70 1014.91 1015.01 1015.07 1015.16 1015.35 1015.64 1016.02 1016.44 1016.82 1017.13 1017.31 1017.37 1017.36 1017.32 1017.32 1017.39 1017.54 1017.75 1017.97 1018.13 1018.18 1018.12 1017.95 1017.72 1017.49 1017.34 1017.30 1017.40 1017.62 1017.92 1018.25 1018.56 1018.82 1019.01 1019.14
1010.98 1011.34 1011.89 1012.56 1013.29 1013.99 1014.57 1015.00 1015.27 1015.41 1015.50 1015.61 1015.77 1016.03 1016.35 1016.70 1017.01 1017.24 1017.36 1017.39 1017.37 1017.35 1017.40 1017.52 1017.74 1018.00 1018.25 1018.42 1018.46 1018.36 1018.15 1017.87 1017.60 1017.42 1017.38 1017.48 1017.72 1018.05 1018.42 1018.76 1019.04 1019.25 1019.40
1010.99 1011.37 1011.94 1012.64 1013.42 1014.16 1014.79 1015.26 1015.56 1015.74 1015.85 1015.96 1016.11 1016.34 1016.61 1016.89 1017.14 1017.31 1017.39 1017.41 1017.39 1017.41 1017.50 1017.68 1017.94 1018.23 1018.49 1018.65 1018.67 1018.54 1018.29 1017.98 1017.69 1017.50 1017.46 1017.59 1017.85 1018.20 1018.59 1018.96 1019.26 1019.48 1019.65
1011.16 1011.54 1012.11 1012.82 1013.59 1014.33 1014.96 1015.44 1015.75 1015.94 1016.06 1016.16 1016.31 1016.50 1016.74 1016.98 1017.19 1017.33 1017.40 1017.42 1017.44 1017.49 1017.62 1017.83 1018.12 1018.42 1018.66 1018.80 1018.78 1018.62 1018.35 1018.02 1017.74 1017.56 1017.55 1017.69 1017.98 1018.36 1018.76 1019.14 1019.45 1019.69 1019.86
1011.47 1011.85 1012.39 1013.07 1013.80 1014.49 1015.08 1015.52 1015.81 1015.98 1016.09 1016.19 1016.32 1016.51 1016.73 1016.95 1017.15 1017.30 1017.38 1017.43 1017.47 1017.56 1017.72 1017.96 1018.23 1018.51 1018.72 1018.81 1018.76 1018.57 1018.28 1017.97 1017.71 1017.57 1017.59 1017.77 1018.09 1018.49 1018.90 1019.28 1019.59 1019.82 1020.00
1011.88 1012.25 1012.77 1013.39 1014.04 1014.65 1015.16 1015.53 1015.76 1015.89 1015.97 1016.06 1016.19 1016.37 1016.59 1016.82 1017.03 1017.20 1017.32 1017.40 1017.49 1017.61 1017.78 1018.01 1018.26 1018.49 1018.65 1018.69 1018.59 1018.38 1018.09 1017.80 1017.58 1017.50 1017.57 1017.80 1018.14 1018.55 1018.96 1019.33 1019.63 1019.86 1020.04
1012.33 1012.70 1013.18 1013.73 1014.29 1014.80 1015.20 1015.48 1015.64 1015.73 1015.78 1015.85 1015.97 1016.15 1016.38 1016.63 1016.87 1017.06 1017.22 1017.35 1017.47 1017.61 1017.78 1017.99 1018.19 1018.36 1018.45 1018.43 1018.30 1018.07 1017.80 1017.54 1017.37 1017.34 1017.47 1017.74 1018.11 1018.52 1018.93 1019.29 1019.58 1019.80 1019.98
1012.77 1013.14 1013.58 1014.07 1014.54 1014.94 1015.24 1015.43 1015.52 1015.55 1015.57 1015.63 1015.75 1015.93 1016.17 1016.43 1016.69 1016.91 1017.10 1017.26 1017.41 1017.56 1017.72 1017.89 1018.04 1018.15 1018.17 1018.09 1017.92 1017.68 1017.43 1017.21 1017.09 1017.12 1017.29 1017.58 1017.97 1018.39 1018.79 1019.14 1019.42 1019.64 1019.82
1013.15 1013.53 1013.95 1014.37 1014.76 1015.07 1015.29 1015.40 1015.44 1015.43 1015.43 1015.47 1015.58 1015.76 1016.00 1016.26 1016.53 1016.77 1016.98 1017.16 1017.32 1017.47 1017.62 1017.75 1017.85 1017.89 1017.85 1017.72 1017.52 1017.28 1017.03 1016.85 1016.77 1016.83 1017.03 1017.35 1017.74 1018.15 1018.55 1018.89 1019.17 1019.39 1019.59
1013.47 1013.85 1014.25 1014.63 1014.95 1015.20 1015.35 1015.41 1015.42 1015.39 1015.37 1015.41 1015.51 1015.67 1015.90 1016.15 1016.41 1016.66 1016.88 1017.07 1017.23 1017.38 1017.50 1017.60 1017.65 1017.64 1017.55 1017.38 1017.16 1016.91 1016.67 1016.50 1016.44 1016.52 1016.72 1017.03 1017.41 1017.81 1018.20 1018.54 1018.83 1019.07 1019.29
1013.71 1014.10 1014.48 1014.82 1015.10 1015.31 1015.42 1015.47 1015.46 1015.42 1015.41 1015.43 1015.52 1015.66 1015.86 1016.09 1016.33 1016.57 1016.79 1016.98 1017.14 1017.29 1017.40 1017.47 1017.49 1017.44 1017.32 1017.12 1016.87 1016.61 1016.37 1016.20 1016.13 1016.19 1016.37 1016.65 1017.00 1017.38 1017.75 1018.10 1018.41 1018.68 1018.94
1013.89 1014.27 1014.62 1014.94 1015.20 1015.38 1015.49 1015.53 1015.53 1015.50 1015.49 1015.50 1015.57 1015.69 1015.85 1016.05 1016.27 1016.49 1016.70 1016.89 1017.06 1017.21 1017.32 1017.38 1017.38 1017.31 1017.16 1016.94 1016.68 1016.39 1016.13 1015.94 1015.84 1015.85 1015.98 1016.22 1016.52 1016.86 1017.22 1017.57 1017.90 1018.21 1018.51
1014.03 1014.38 1014.71 1015.00 1015.24 1015.41 1015.53 1015.58 1015.59 1015.58 1015.56 1015.57 1015.61 1015.69 1015.82 1015.98 1016.17 1016.38 1016.59 1016.79 1016.98 1017.14 1017.25 1017.32 1017.32 1017.23 1017.07 1016.84 1016.55 1016.25 1015.95 1015.71 1015.56 1015.51 1015.56 1015.72 1015.96 1016.26 1016.59 1016.94 1017.29 1017.63 1017.97
1014.16 1014.46 1014.75 1015.00 1015.23 1015.40 1015.52 1015.59 1015.61 1015.61 1015.59 1015.57 1015.58 1015.63 1015.72 1015.85 1016.02 1016.22 1016.44 1016.66 1016.87 1017.05 1017.19 1017.27 1017.27 1017.19 1017.02 1016.77 1016.46 1016.13 1015.80 1015.50 1015.27 1015.14 1015.11 1015.18 1015.35 1015.58 1015.88 1016.21 1016.57 1016.93 1017.31
1014.29 1014.52 1014.76 1014.98 1015.18 1015.35 1015.48 1015.56 1015.59 1015.58 1015.55 1015.51 1015.48 1015.49 1015.54 1015.65 1015.81 1016.01 1016.24 1016.49 1016.73 1016.94 1017.10 1017.19 1017.21 1017.12 1016.95 1016.69 1016.37 1016.01 1015.63 1015.28 1014.98 1014.76 1014.64 1014.62 1014.69 1014.86 1015.11 1015.41 1015.75 1016.12 1016.51
1014.41 1014.58 1014.76 1014.95 1015.13 1015.29 1015.41 1015.49 1015.52 1015.51 1015.45 1015.38 1015.32 1015.29 1015.31 1015.39 1015.54 1015.75 1016.01 1016.28 1016.55 1016.79 1016.97 1017.08 1017.09 1017.01 1016.84 1016.57 1016.24 1015.85 1015.45 1015.05 1014.69 1014.39 1014.18 1014.06 1014.05 1014.14 1014.31 1014.56 1014.88 1015.23 1015.60
1014.52 1014.63 1014.76 1014.92 1015.08 1015.23 1015.36 1015.44 1015.46 1015.43 1015.35 1015.25 1015.15 1015.08 1015.07 1015.14 1015.28 1015.50 1015.77 1016.06 1016.35 1016.60 1016.79 1016.90 1016.92 1016.84 1016.66 1016.40 1016.06 1015.67 1015.25 1014.82 1014.42 1014.06 1013.77 1013.57 1013.47 1013.47 1013.56 1013.75 1014.00 1014.31 1014.64
1014.61 1014.67 1014.77 1014.90 1015.05 1015.20 1015.33 1015.41 1015.44 1015.39 1015.29 1015.16 1015.03 1014.93 1014.89 1014.94 1015.07 1015.28 1015.56 1015.85 1016.15 1016.40 1016.58 1016.68 1016.69 1016.60 1016.42 1016.17 1015.84 1015.46 1015.05 1014.62 1014.20 1013.81 1013.46 1013.19 1013.01 1012.92 1012.93 1013.03 1013.21 1013.44 1013.73
1014.64 1014.68 1014.76 1014.89 1015.04 1015.21 1015.35 1015.44 1015.47 1015.43 1015.32 1015.16 1015.01 1014.88 1014.82 1014.84 1014.95 1015.15 1015.41 1015.69 1015.96 1016.19 1016.35 1016.43 1016.42 1016.32 1016.15 1015.90 1015.60 1015.26 1014.88 1014.48 1014.06 1013.66 1013.29 1012.97 1012.72 1012.55 1012.47 1012.47 1012.56 1012.71 1012.92
1014.60 1014.65 1014.74 1014.88 1015.05 1015.24 1015.40 1015.52 1015.57 1015.54 1015.43 1015.27 1015.10 1014.96 1014.87 1014.87 1014.95 1015.12 1015.34 1015.58 1015.81 1016.00 1016.12 1016.16 1016.12 1016.02 1015.85 1015.63 1015.36 1015.07 1014.74 1014.39 1014.02 1013.64 1013.27 1012.92 1012.62 1012.38 1012.21 1012.12 1012.11 1012.17 1012.30
1014.50 1014.57 1014.69 1014.85 1015.06 1015.27 1015.47 1015.62 1015.70 1015.69 1015.61 1015.46 1015.29 1015.13 1015.03 1014.99 1015.04 1015.16 1015.32 1015.51 1015.68 1015.81 1015.88 1015.87 1015.81 1015.69 1015.53 1015.34 1015.13 1014.89 1014.63 1014.35 1014.04 1013.70 1013.35 1013.01 1012.68 1012.39 1012.15 1011.98 1011.87 1011.84 1011.88
1014.35 1014.46 1014.61 1014.81 1015.04 1015.29 1015.52 1015.71 1015.82 1015.85 1015.79 1015.66 1015.50 1015.34 1015.22 1015.15 1015.15 1015.22 1015.32 1015.44 1015.55 1015.61 1015.62 1015.57 1015.48 1015.35 1015.20 1015.04 1014.88 1014.71 1014.52 1014.31 1014.08 1013.80 1013.50 1013.17 1012.84 1012.53 1012.24 1012.00 1011.81 1011.69 1011.65
1014.19 1014.34 1014.53 1014.75 1015.00 1015.27 1015.53 1015.75 1015.89 1015.95 1015.91 1015.81 1015.66 1015.50 1015.37 1015.27 1015.23 1015.24 1015.28 1015.33 1015.37 1015.37 1015.33 1015.24 1015.13 1014.99 1014.85 1014.72 1014.59 1014.48 1014.36 1014.23 1014.07 1013.86 1013.61 1013.33 1013.02 1012.71 1012.40 1012.12 1011.87 1011.69 1011.56
Thickness
5836 5830 5815 5811 5808 5805 5803 5801 5799 5796 5793 5790 5787 5784 5781 5779 5776 5773 5771 5769 5767 5765 5764 5762 5761 5760 5760 5759 5758 5757 5756 5755 5754 5753 5753 5751 5751 5750 5749 5749 5750 5750 5746
5838 5827 5813 5809 5806 5803 5801 5799 5797 5794 5791 5789 5786 5783 5780 5777 5775 5772 5770 5767 5766 5765 5763 5762 5760 5759 5758 5758 5756 5756 5755 5754 5753 5752 5752 5751 5749 5748 5748 5748 5750 5748 5744
5834 5824 5812 5807 5804 5801 5799 5797 5794 5792 5789 5786 5784 5781 5778 5775 5773 5770 5768 5766 5765 5763 5762 5761 5759 5758 5757 5756 5755 5754 5753 5752 5752 5752 5752 5754 5750 5746 5746 5746 5746 5744 5742
5831 5822 5813 5805 5802 5799 5796 5794 5791 5789 5786 5783 5781 5778 5775 5773 5770 5768 5766 5764 5763 5762 5761 5759 5758 5757 5756 5754 5753 5752 5752 5751 5751 5752 5755 5755 5752 5745 5744 5744 5743 5742 5741
5826 5819 5809 5802 5799 5796 5793 5790 5788 5785 5783 5780 5777 5775 5772 5770 5768 5766 5764 5763 5761 5760 5759 5758 5756 5755 5754 5753 5752 5751 5750 5749 5750 5752 5755 5754 5751 5744 5743 5742 5741 5740 5739
5821 5815 5806 5799 5795 5792 5789 5787 5785 5782 5779 5777 5774 5771 5769 5767 5765 5763 5762 5760 5759 5758 5757 5756 5754 5753 5752 5751 5750 5749 5748 5748 5749 5755 5753 5753 5750 5744 5742 5741 5740 5739 5738
5819 5813 5803 5795 5791 5788 5785 5783 5781 5778 5776 5774 5771 5769 5766 5764 5762 5760 5759 5758 5757 5756 5754 5753 5752 5751 5749 5748 5747 5747 5746 5747 5751 5754 5752 5752 5748 5743 5741 5739 5738 5737 5737
5817 5811 5800 5791 5788 5784 5781 5779 5777 5775 5772 5770 5768 5766 5764 5761 5759 5758 5756 5755 5754 5753 5752 5750 5749 5748 5747 5745 5744 5744 5744 5744 5749 5753 5751 5750 5744 5741 5739 5738 5737 5736 5735
5815 5809 5798 5792 5785 5780 5777 5775 5772 5770 5769 5767 5764 5762 5760 5758 5756 5755 5753 5752 5751 5750 5749 5747 5746 5745 5744 5743 5742 5741 5741 5742 5746 5750 5751 5749 5743 5740 5738 5737 5736 5734 5733
5809 5804 5797 5793 5786 5780 5776 5771 5769 5766 5765 5763 5761 5759 5756 5754 5753 5752 5751 5749 5748 5747 5746 5744 5743 5742 5742 5741 5740 5739 5739 5739 5746 5750 5749 5747 5741 5738 5737 5735 5734 5733 5732
5799 5797 5795 5790 5783 5779 5776 5770 5766 5763 5761 5759 5757 5755 5753 5754 5754 5751 5750 5747 5745 5744 5743 5742 5741 5740 5739 5739 5738 5737 5736 5741 5748 5749 5748 5744 5740 5737 5735 5734 5733 5732 5731
5789 5790 5789 5785 5779 5775 5773 5768 5765 5763 5759 5756 5756 5754 5752 5751 5750 5750 5747 5744 5742 5741 5740 5739 5738 5738 5737 5741 5739 5736 5738 5742 5746 5748 5746 5741 5737 5735 5734 5733 5732 5731 5730
5786 5785 5783 5778 5773 5770 5768 5765 5762 5760 5756 5753 5751 5748 5747 5746 5745 5745 5744 5742 5740 5739 5738 5738 5737 5737 5738 5739 5739 5738 5739 5742 5744 5745 5745 5740 5736 5733 5733 5732 5731 5730 5729
5782 5779 5778 5774 5769 5765 5762 5761 5757 5755 5752 5750 5747 5744 5742 5741 5741 5740 5739 5739 5738 5737 5735 5735 5734 5735 5734 5734 5734 5734 5736 5736 5739 5741 5740 5737 5734 5732 5731 5730 5730 5729 5728
5775 5774 5771 5767 5763 5759 5756 5754 5752 5750 5749 5746 5742 5740 5739 5739 5738 5737 5735 5734 5735 5734 5733 5731 5730 5730 5730 5729 5730 5731 5732 5733 5735 5735 5736 5734 5733 5731 5730 5730 5729 5728 5728
5771 5769 5766 5762 5759 5755 5752 5749 5747 5745 5743 5742 5740 5738 5736 5735 5734 5733 5731 5730 5730 5729 5728 5727 5726 5726 5726 5726 5727 5728 5728 5730 5731 5731 5733 5734 5732 5731 5730 5729 5729 5728 5728
5767 5765 5760 5758 5754 5750 5747 5745 5744 5742 5740 5738 5737 5734 5732 5731 5729 5727 5727 5727 5725 5723 5722 5721 5721 5722 5722 5723 5724 5726 5726 5727 5729 5730 5730 5732 5733 5732 5731 5730 5729 5728 5727
5763 5759 5755 5755 5750 5746 5743 5739 5740 5738 5736 5734 5732 5730 5728 5726 5724 5722 5722 5723 5720 5718 5718 5717 5717 5718 5718 5719 5720 5722 5725 5726 5727 5727 5729 5730 5731 5734 5733 5731 5729 5728 5727
5755 5752 5749 5748 5745 5742 5738 5736 5735 5732 5730 5730 5728 5726 5723 5720 5718 5717 5717 5715 5713 5714 5713 5713 5714 5712 5712 5713 5715 5718 5721 5723 5726 5727 5728 5729 5730 5730 5732 5732 5729 5728 5727
5750 5747 5745 5742 5740 5737 5735 5732 5730 5729 5727 5725 5723 5720 5717 5715 5712 5711 5711 5709 5707 5708 5707 5706 5705 5705 5705 5706 5710 5713 5715 5719 5722 5725 5726 5728 5728 5729 5730 5731 5729 5728 5727
5744 5742 5739 5737 5735 5732 5730 5728 5725 5723 5722 5720 5718 5714 5711 5709 5706 5704 5705 5702 5701 5701 5700 5700 5699 5700 5700 5702 5701 5704 5711 5716 5719 5720 5722 5723 5726 5727 5727 5728 5728 5728 5728
5739 5737 5734 5732 5730 5727 5725 5721 5719 5717 5717 5715 5712 5707 5704 5701 5699 5700 5696 5696 5696 5692 5691 5691 5690 5691 5694 5696 5693 5694 5698 5706 5711 5717 5716 5716 5719 5721 5722 5724 5725 5725 5726
5736 5734 5733 5728 5725 5722 5720 5718 5715 5711 5709 5708 5705 5702 5698 5694 5692 5690 5688 5688 5687 5686 5688 5685 5684 5683 5684 5688 5689 5686 5685 5691 5698 5706 5708 5710 5711 5713 5717 5719 5721 5722 5722
5734 5732 5729 5725 5721 5718 5715 5713 5709 5705 5703 5701 5698 5697 5692 5689 5686 5684 5682 5681 5680 5680 5680 5679 5681 5678 5675 5677 5681 5681 5682 5684 5680 5687 5696 5702 5704 5705 5708 5713 5717 5718 5719
5735 5731 5727 5722 5718 5714 5711 5707 5702 5701 5699 5698 5694 5689 5685 5686 5682 5679 5677 5674 5673 5673 5673 5670 5670 5669 5670 5670 5672 5674 5675 5675 5675 5674 5679 5687 5694 5700 5704 5706 5710 5713 5714
5733 5729 5725 5719 5713 5709 5705 5702 5697 5694 5690 5687 5684 5683 5681 5682 5678 5676 5672 5668 5666 5666 5665 5663 5662 5662 5662 5662 5662 5665 5666 5667 5669 5670 5671 5675 5682 5691 5696 5701 5704 5707 5709